Regional Weather Roundup
Issued by NWS Goodland, KS

Home | Current Version | Previous Version | Text Only | Print | Product List | Glossary Off
Versions: 1 2 3 4 5 6 7 8 9 10 11 12 13 14 15 16 17 18 19 20 21 22 23 24 25 26 27 28 29 30 31 32 33 34 35 36 37 38 39 40 41 42 43 44 45 46 47 48 49 50

000
ASUS43 KGLD 220308
RWRGLD

GOODLAND FORECAST AREA HOURLY WEATHER ROUNDUP
NATIONAL WEATHER SERVICE GOODLAND KS
900 PM MDT THU MAY 21 2015

...OFFICIAL OBSERVATIONS...

CITY           SKY/WX    TMP DP  RH WIND       PRES   REMARKS
GOODLAND KS    CLOUDY    52  45  77 SE7       30.19S
HILL CITY KS   CLOUDY    53  45  74 S8        30.21R
IMPERIAL NEB   CLOUDY    53  44  71 SE6       30.18R
MCCOOK NEB     CLOUDY    54  42  64 SE8       30.19R
AKRON CO       CLOUDY    49  45  86 SE14G24   30.16R
BURLINGTON CO  CLOUDY    50  43  77 SE13      30.18R
LIMON CO       CLOUDY    46  43  89 SE15      30.16S
$$

...UNOFFICIAL OBSERVATIONS...

CITY           SKY/WX    TMP DP  RH WIND       PRES   REMARKS
COLBY KS       MOCLDY    54  48  82 SE8       30.21R
GOVE KS          N/A     52  32  46 MISG        N/A
LENORA KS        N/A     51  32  48 MISG        N/A
NORTON KS      CLEAR     55  37  50 SE6       30.19
SHARON SPRINGS   N/A     52  47  83 MISG        N/A
TRENTON NEB      N/A     52  32  46 SE8         N/A
KIT CARSON CO    N/A     50  44  80 MISG        N/A
YUMA CO          N/A     51  43  74 SE10G17     N/A
$$



USA.gov is the U.S. government's official web portal to all federal, state and local government web resources and services.